Waarnemingen

Advertentie
Mijn weer
Vichy, Frankrijk (7374): temperatuur & dauwpunt: 13.06.2019 17:00:00 - 19.06.2019 17:00:00 (CEST)Vichy, Frankrijk (7374): temperatuur 5cm: 13.06.2019 17:00:00 - 19.06.2019 17:00:00 (CEST)Vichy, Frankrijk (7374): windsnelheid & windstoten: 13.06.2019 17:00:00 - 19.06.2019 17:00:00 (CEST)Vichy, Frankrijk (7374): windrichting: 13.06.2019 17:00:00 - 19.06.2019 17:00:00 (CEST)Vichy, Frankrijk (7374): luchtdruk: 13.06.2019 17:00:00 - 19.06.2019 17:00:00 (CEST)Vichy, Frankrijk (7374): zicht: 13.06.2019 17:00:00 - 19.06.2019 17:00:00 (CEST)Vichy, Frankrijk (7374): Zonneschijnduur: 13.06.2019 17:00:00 - 19.06.2019 17:00:00 (CEST)Vichy, Frankrijk (7374): neerslag: 13.06.2019 17:00:00 - 19.06.2019 17:00:00 (CEST)
Datum & Tijd tt [°C] td [°C] tt 5cm [°C] ff [km/u] ff [kn] fx [km/u] fx [kn] dd ppp [hPa] vv [km] sd [min] rr [mm]
19.06.2019 17:00:00 26,8 14,9 27,5 12 6 26 14 NNW 1010,0 20 17 0,0
19.06.2019 16:00:00 27,0 14,4 28,1 16 9 27 15 NNW 1009,9 19 10 0,0
19.06.2019 15:00:00 27,8 13,7 31,7 10 5 21 12 N 1009,7 20 45 0,0
19.06.2019 14:00:00 27,9 11,9 35,9 8 4 24 13 W 1009,9 20 60 0,0
19.06.2019 13:00:00 27,7 9,5 35,9 5 3 21 11 W 1010,0 20 60 0,0
19.06.2019 12:00:00 27,1 11,6 29,7 6 3 18 10 ZZO 1010,1 20 55 0,0
19.06.2019 11:00:00 24,6 11,5 30,6 8 5 18 10 ZO 1010,4 20 58 0,0
19.06.2019 10:00:00 22,4 11,8 20,8 10 5 18 10 ZZO 1011,1 20 33 0,0
19.06.2019 09:00:00 20,3 12,5 19,0 5 3 12 7 ZZW 1011,3 20 23 0,0
19.06.2019 08:00:00 19,1 12,6 16,7 6 3 39 21 ONO 1010,5 20 0 0,0
19.06.2019 07:00:00 18,4 11,9 15,5 11 6 22 12 N 1009,4 20 0 0,0
19.06.2019 06:00:00 19,5 10,8 16,1 3 2 12 7 WNW 1012,1 20 0 0,0
19.06.2019 05:00:00 20,6 9,5 17,2 5 3 40 22 WNW 1011,6 20 0 0,0
19.06.2019 04:00:00 20,3 6,2 16,0 6 3 19 10 ZW 1010,3 20 0 0,2
19.06.2019 03:00:00 22,7 4,2 19,8 12 7 26 14 Z 1009,3 20 0 0,0
19.06.2019 02:00:00 22,8 4,3 18,6 11 6 25 13 Z 1009,3 20 0 0,0
19.06.2019 01:00:00 23,8 4,7 20,3 16 8 29 16 Z 1009,4 20 0 0,0
19.06.2019 00:00:00 24,5 5,8 21,0 14 8 26 14 Z 1009,8 20 0 0,0
18.06.2019 23:00:00 25,3 7,4 20,1 11 6 21 11 Z 1009,8 20 0 0,0
18.06.2019 22:00:00 25,1 12,0 18,4 8 4 15 8 Z 1009,3 19 12 0,0
18.06.2019 21:00:00 26,9 14,6 23,2 5 3 9 5 ZZO 1008,6 20 44 0,0
18.06.2019 20:00:00 27,7 17,2 25,8 0 0 15 8 N 1008,6 20 15 0,0
18.06.2019 19:00:00 31,1 12,0 31,0 7 4 14 7 O 1008,4 20 56 0,0
18.06.2019 18:00:00 30,6 13,4 30,9 9 5 15 8 ONO 1008,9 20 28 0,0
18.06.2019 17:00:00 30,0 11,5 30,0 9 5 14 8 O 1009,6 20 8 0,0
18.06.2019 16:00:00 29,9 9,4 31,0 8 4 12 7 O 1010,3 20 0 0,0
18.06.2019 15:00:00 30,4 9,8 34,9 6 3 13 7 NO 1010,5 20 44 0,0
18.06.2019 14:00:00 30,9 11,3 36,7 5 3 14 8 Z 1011,1 20 60 0,0
18.06.2019 13:00:00 28,8 12,2 32,4 9 5 19 10 Z 1011,8 20 45 0,0
18.06.2019 12:00:00 27,9 13,0 36,5 10 5 18 10 ZZO 1012,1 20 60 0,0
18.06.2019 11:00:00 24,1 15,8 25,7 6 3 15 8 OZO 1012,8 20 40 0,0
18.06.2019 10:00:00 20,8 14,9 20,7 10 5 14 8 ZZO 1013,5 20 37 0,0
18.06.2019 09:00:00 18,0 14,1 18,2 9 5 14 8 Z 1014,1 20 16 0,0
18.06.2019 08:00:00 16,2 13,5 14,9 7 4 13 7 Z 1014,3 20 60 0,0
18.06.2019 07:00:00 13,9 13,1 9,9 3 2 13 7 Z 1014,7 20 31 0,0
18.06.2019 06:00:00 11,9 11,6 9,2 6 4 12 6 ZZW 1015,0 20 0 0,0
18.06.2019 05:00:00 11,4 11,1 9,2 6 4 10 6 ZZW 1015,1 20 0 0,0
18.06.2019 04:00:00 11,3 10,8 9,2 0 0 2 1 N 1015,3 20 0 0,0
18.06.2019 03:00:00 12,0 11,5 9,6 0 0 4 2 N 1015,5 20 0 0,0
18.06.2019 02:00:00 12,6 11,8 10,2 0 0 4 2 N 1015,8 20 0 0,0
18.06.2019 01:00:00 13,3 12,4 11,1 0 0 3 2 N 1015,8 20 0 0,0
18.06.2019 00:00:00 14,3 13,2 12,1 0 0 6 3 N 1015,8 20 0 0,0
17.06.2019 23:00:00 15,5 13,5 13,1 2 1 6 3 ZZW 1015,8 20 0 0,0
17.06.2019 22:00:00 17,9 13,8 13,9 0 0 9 5 N 1015,2 20 13 0,0
17.06.2019 21:00:00 24,4 13,0 20,4 6 3 12 7 NO 1014,4 20 60 0,0
17.06.2019 20:00:00 26,6 11,5 27,1 9 5 14 8 NNO 1014,2 20 60 0,0
17.06.2019 19:00:00 27,3 12,1 31,8 9 5 19 11 NO 1014,0 20 60 0,0
17.06.2019 18:00:00 27,8 11,4 34,8 8 5 18 10 NNO 1014,3 20 60 0,0
17.06.2019 17:00:00 27,2 10,0 35,4 7 4 25 14 ONO 1014,7 19 60 0,0
17.06.2019 16:00:00 26,3 12,4 35,5 8 5 20 11 NO 1015,5 20 60 0,0
17.06.2019 15:00:00 26,1 12,5 35,0 9 5 24 13 ONO 1016,0 20 60 0,0
17.06.2019 14:00:00 24,5 14,6 35,4 8 5 22 12 NO 1016,6 20 60 0,0
17.06.2019 13:00:00 24,2 12,8 36,1 5 3 16 8 N 1017,0 20 60 0,0
17.06.2019 12:00:00 22,7 13,7 33,2 6 3 12 7 NO 1017,5 20 60 0,0
17.06.2019 11:00:00 21,0 12,4 29,7 3 1 8 5 N 1018,2 20 60 0,0
17.06.2019 10:00:00 18,3 12,7 22,9 5 3 15 8 ZZO 1018,9 20 60 0,0
17.06.2019 09:00:00 15,6 11,8 18,3 8 4 13 7 Z 1019,4 20 60 0,0
17.06.2019 08:00:00 12,6 11,8 10,2 6 4 12 6 Z 1019,9 20 60 0,0
17.06.2019 07:00:00 9,8 9,8 5,8 0 0 3 2 N 1020,2 17 40 0,0
17.06.2019 06:00:00 7,9 7,8 5,2 0 0 3 1 N 1020,2 11 0 0,0
17.06.2019 05:00:00 8,1 8,0 5,5 0 0 0 0 N 1020,1 9 0 0,0
17.06.2019 04:00:00 9,1 9,0 5,8 0 0 2 1 N 1020,2 10 0 0,0
17.06.2019 03:00:00 10,0 9,7 7,3 0 0 3 1 N 1020,5 16 0 0,0
17.06.2019 02:00:00 10,8 10,5 7,7 0 0 3 1 N 1020,6 18 0 0,0
17.06.2019 01:00:00 11,1 10,6 8,8 0 0 2 1 N 1020,6 18 0 0,0
17.06.2019 00:00:00 12,1 11,5 9,1 0 0 3 1 N 1020,8 20 0 0,0
16.06.2019 23:00:00 13,2 12,1 10,5 0 0 3 1 N 1020,5 20 0 0,0
16.06.2019 22:00:00 15,6 12,7 12,8 2 1 10 6 WNW 1020,2 20 13 0,0
16.06.2019 21:00:00 20,4 12,4 18,2 8 5 16 8 N 1019,5 20 60 0,0
16.06.2019 20:00:00 22,5 12,4 23,8 9 5 22 12 NO 1019,3 20 60 0,0
16.06.2019 19:00:00 22,8 11,2 27,7 9 5 23 13 N 1019,5 20 60 0,0
16.06.2019 18:00:00 22,8 10,2 28,9 11 6 22 12 NO 1019,8 20 60 0,0
16.06.2019 17:00:00 22,5 11,6 30,9 9 5 20 11 N 1020,0 20 60 0,0
16.06.2019 16:00:00 22,2 10,7 31,3 9 5 22 12 NNO 1020,7 20 60 0,0
16.06.2019 15:00:00 21,6 10,4 32,0 5 3 27 15 N 1021,1 20 60 0,0
16.06.2019 14:00:00 20,7 9,3 31,1 6 3 16 9 NO 1021,7 20 60 0,0
16.06.2019 13:00:00 20,4 9,3 31,5 7 4 14 7 ONO 1022,1 20 60 0,0
16.06.2019 12:00:00 19,5 9,9 28,3 5 3 12 6 Z 1022,6 20 60 0,0
16.06.2019 11:00:00 18,0 10,8 27,8 4 2 9 5 OZO 1022,9 20 60 0,0
16.06.2019 10:00:00 16,5 9,9 23,9 4 2 11 6 O 1023,4 20 60 0,0
16.06.2019 09:00:00 15,5 11,5 17,1 3 2 7 4 OZO 1023,8 20 60 0,0
16.06.2019 08:00:00 11,6 10,8 8,9 5 3 8 5 Z 1023,9 20 60 0,0
16.06.2019 07:00:00 8,4 8,3 5,5 0 0 3 2 N 1024,0 3,2 40 0,0
16.06.2019 06:00:00 7,1 6,8 4,5 3 2 5 3 WZW 1024,0 8 0 0,0
16.06.2019 05:00:00 8,3 8,0 5,0 3 2 7 4 ZW 1023,6 6 0 0,0
16.06.2019 04:00:00 9,6 9,1 6,9 4 2 11 6 ZZW 1023,3 9 0 0,0
16.06.2019 03:00:00 11,3 10,8 9,3 5 3 14 8 ZZW 1023,0 17 0 0,0
16.06.2019 02:00:00 11,6 11,3 8,3 7 4 15 8 ZZW 1022,9 20 0 0,0
16.06.2019 01:00:00 11,0 10,7 8,0 7 4 11 6 Z 1022,8 19 0 0,0
16.06.2019 00:00:00 10,6 10,1 7,9 5 3 8 5 ZW 1022,5 17 0 0,0
15.06.2019 23:00:00 11,8 11,0 8,7 0 0 4 2 N 1021,9 17 0 0,0
15.06.2019 22:00:00 14,5 12,5 13,1 0 0 6 3 N 1021,1 20 12 0,0
15.06.2019 21:00:00 16,3 11,7 16,3 3 2 5 3 Z 1020,4 20 16 0,0
15.06.2019 20:00:00 17,1 11,4 17,6 0 0 13 7 N 1020,5 20 26 0,0
15.06.2019 19:00:00 18,1 10,2 22,0 7 4 22 12 WNW 1020,0 20 60 0,0
15.06.2019 18:00:00 17,4 12,1 21,0 8 5 16 9 NW 1019,7 20 52 0,0
15.06.2019 17:00:00 15,2 12,5 14,1 8 5 27 14 NW 1019,9 20 5 0,0
15.06.2019 16:00:00 14,6 13,3 14,4 13 7 29 16 NNW 1019,1 9 0 2,4
15.06.2019 15:00:00 17,9 13,8 19,5 2 1 9 5 O 1018,6 20 0 0,0
15.06.2019 14:00:00 17,0 15,2 16,5 5 3 10 5 NNW 1018,5 20 2 0,6
15.06.2019 13:00:00 15,8 15,0 15,7 4 2 10 5 O 1018,3 4,8 0 4,4
15.06.2019 12:00:00 16,5 14,7 16,5 2 1 6 4 ZW 1018,4 18 0 0,2
15.06.2019 11:00:00 17,0 14,3 17,8 3 2 9 5 ZO 1018,3 20 0 0,0
15.06.2019 10:00:00 16,0 14,2 18,0 5 3 11 6 ZZO 1017,9 20 0 0,0
15.06.2019 09:00:00 15,0 14,2 15,3 10 5 16 9 Z 1017,7 20 0 0,0
15.06.2019 08:00:00 14,1 13,8 13,9 7 4 14 8 Z 1017,1 20 0 0,0
15.06.2019 07:00:00 13,3 13,1 11,6 8 4 13 7 Z 1016,5 20 29 0,0
15.06.2019 06:00:00 12,7 12,5 11,8 7 4 13 7 Z 1016,4 19 0 0,0
15.06.2019 05:00:00 13,0 12,8 11,9 3 2 5 3 ZZO 1016,1 7 0 0,0
15.06.2019 04:00:00 12,6 12,4 11,8 0 0 10 5 N 1015,7 0,3 0 0,0
15.06.2019 03:00:00 13,0 12,7 10,9 5 3 9 5 ZZO 1015,4 2,9 0 0,0
15.06.2019 02:00:00 13,7 13,4 10,7 4 2 13 7 Z 1015,0 9 0 0,2
15.06.2019 01:00:00 13,5 13,2 11,6 5 3 13 7 ZW 1014,2 13 0 0,0
15.06.2019 00:00:00 14,5 14,2 13,8 7 4 16 8 Z 1013,8 14 0 1,6
14.06.2019 23:00:00 14,6 14,1 14,0 2 1 24 13 Z 1014,2 4,2 0 8,3
14.06.2019 22:00:00 14,9 14,4 14,6 2 1 10 5 WZW 1014,5 4,3 0 4,2
14.06.2019 21:00:00 15,3 15,0 14,9 3 1 6 3 ZW 1012,7 5 0 1,5
14.06.2019 20:00:00 15,5 15,0 15,2 0 0 6 4 N 1012,0 7 0 1,2
14.06.2019 19:00:00 15,7 15,1 15,3 0 0 10 6 N 1011,7 6 0 3,0
14.06.2019 18:00:00 16,3 15,0 15,5 6 3 11 6 ZO 1011,7 17 0 0,6
14.06.2019 17:00:00 17,1 14,6 16,6 4 2 13 7 ZZO 1011,9 20 0 0,2
14.06.2019 16:00:00 16,8 14,3 16,5 4 2 17 9 W 1011,5 20 0 0,0
14.06.2019 15:00:00 17,0 14,3 15,4 7 4 15 8 Z 1012,7 20 0 0,6
14.06.2019 14:00:00 16,9 13,6 15,5 9 5 22 12 Z 1014,4 19 0 0,0
14.06.2019 13:00:00 17,5 12,4 17,7 4 2 11 6 Z 1013,7 20 0 0,0
14.06.2019 12:00:00 16,6 12,7 17,1 3 1 11 6 W 1014,1 20 0 0,0
14.06.2019 11:00:00 16,6 12,1 18,3 8 4 17 9 N 1013,9 20 0 0,0
14.06.2019 10:00:00 16,3 12,1 17,6 4 2 8 4 N 1014,1 20 0 0,0
14.06.2019 09:00:00 16,0 12,0 15,5 0 0 8 5 N 1015,4 20 1 0,0
14.06.2019 08:00:00 14,1 12,3 11,5 5 3 9 5 Z 1015,1 20 0 0,0
14.06.2019 07:00:00 12,4 11,3 9,6 2 1 5 3 ZZO 1014,9 20 0 0,0
14.06.2019 06:00:00 12,9 11,5 10,6 3 2 10 5 W 1015,1 20 0 0,0
14.06.2019 05:00:00 13,1 11,0 10,3 4 2 10 5 NO 1013,6 20 0 0,0
14.06.2019 04:00:00 11,6 10,0 8,4 2 1 10 6 N 1012,8 20 0 0,0
14.06.2019 03:00:00 10,5 9,9 7,4 3 1 6 3 NNW 1012,0 20 0 0,0
14.06.2019 02:00:00 10,6 9,8 7,4 3 1 5 3 N 1011,9 20 0 0,0
14.06.2019 01:00:00 11,6 10,5 8,1 3 1 5 3 W 1012,6 20 0 0,0
14.06.2019 00:00:00 12,9 11,5 9,4 0 0 9 5 N 1012,9 20 0 0,0
13.06.2019 23:00:00 14,5 12,4 11,6 3 1 7 4 WNW 1012,6 20 0 0,0
13.06.2019 22:00:00 17,2 12,5 13,2 4 2 8 4 O 1011,6 20 11 0,0
13.06.2019 21:00:00 21,6 12,4 18,4 2 1 14 7 NW 1010,5 20 24 0,0
13.06.2019 20:00:00 25,2 9,5 23,8 6 3 12 7 N 1009,6 19 48 0,0
13.06.2019 19:00:00 24,3 9,8 24,6 8 5 21 12 N 1009,5 20 18 0,0
13.06.2019 18:00:00 24,7 7,3 25,5 12 7 29 15 N 1009,5 20 22 0,0
13.06.2019 17:00:00 24,8 6,5 26,9 12 6 27 15 N 1009,7 20 26 0,0

tt = temperatuur
td = dauwpunt
tt 5cm = temperatuur 5cm
ff = windsnelheid
fx = windstoten
dd = windrichting
ppp = luchtdruk
vv = zicht
sd = Zonneschijnduur
rr = neerslag

Weerstations in de omgeving